カタログに戻る

STARLINK-2343

運用中通信VLEO
NORAD 47884·PAYLOAD·🇺🇸 United States

打ち上げ Mar 14, 2021 から Cape Canaveral Space Force Station

Loading…

次のパス (今後24時間)

TLE

最新Source: CelesTrak SupGP

元期: Sep 15, 2026, 01:00 UTC

1 47884C 21021AA  26258.04215278  .00052339  00000+0  16834-2 0  2582
2 47884  53.1583 119.8197 0001528  81.1142  85.0513 15.31670242    11

AllMySatでSTARLINK-2343をリアルタイム追跡

Download on the App Store